Location: Oshawa
(43.9000°N, 78.8670°W)
Time: 03:57:56
(UTC-05:00)

S-56A Canister/Altair - All Passes

Search period start: 25 February 2017 00:00
Search period end: 07 March 2017 00:00
Orbit: 639 x 2495 km, 38.9° (Epoch: 23 February)

Date Brightness Start Highest point End Pass type
(mag) Time Alt. Az. Time Alt. Az. Time Alt. Az.
25 Feb - 16:29:50 10° SSW 16:34:19 30° SSE 16:40:14 10° E daylight
25 Feb - 18:31:42 10° WSW 18:37:37 59° S 18:46:31 10° E visible
25 Feb - 20:34:40 10° W 20:41:54 55° SSW 20:52:49 10° ESE visible
25 Feb - 22:38:37 10° W 22:46:34 32° SSW 22:57:18 10° SSE visible
26 Feb - 00:47:58 10° WSW 00:51:01 11° SW 00:54:17 10° SSW night (unlit)
26 Feb - 15:58:04 10° SSW 16:02:07 25° SSE 16:07:11 10° E daylight
26 Feb - 17:59:40 10° WSW 18:05:11 56° S 18:13:21 10° E daylight
26 Feb - 20:02:31 10° W 20:09:17 56° S 20:19:33 10° ESE visible
26 Feb - 22:06:14 10° W 22:13:49 34° SSW 22:24:18 10° SSE visible
27 Feb - 00:14:02 10° WSW 00:18:17 13° SW 00:22:59 10° SSW night (unlit)
27 Feb - 15:26:23 10° SSW 15:29:56 21° SE 15:34:10 10° E daylight
27 Feb - 17:27:40 10° WSW 17:32:50 52° SSE 17:40:15 10° E daylight
27 Feb - 19:30:25 10° W 19:36:44 56° S 19:46:18 10° ESE visible
27 Feb - 21:33:55 10° W 21:41:07 35° SSW 21:51:16 10° SE visible
27 Feb - 23:40:42 10° WSW 23:45:33 14° SW 23:51:07 10° SSW visible
28 Feb - 14:54:47 10° S 14:57:46 17° SE 15:01:08 10° ESE daylight
28 Feb - 16:55:40 10° WSW 17:00:31 47° SSE 17:07:15 10° E daylight
28 Feb - 18:58:20 10° W 19:04:14 56° S 19:13:07 10° ESE visible
28 Feb - 21:01:40 10° W 21:08:29 37° SSW 21:18:12 10° SE visible
28 Feb - 23:07:42 10° WSW 23:12:51 15° SW 23:18:56 10° S visible
01 Mar - 14:23:22 10° S 14:25:37 13° SE 14:28:00 10° ESE daylight
01 Mar - 16:23:41 10° SW 16:28:16 43° SSE 16:34:20 10° E daylight
01 Mar - 18:26:15 10° W 18:31:48 56° S 18:39:59 10° ESE visible
01 Mar - 20:29:27 10° W 20:35:53 38° SSW 20:45:09 10° SE visible
01 Mar - 22:34:53 10° WSW 22:40:10 17° SW 22:46:34 10° S visible
02 Mar - 13:52:30 10° SSE 13:53:27 11° SE 13:54:23 10° SE daylight
02 Mar - 15:51:43 10° SW 15:56:02 38° SSE 16:01:30 10° E daylight
02 Mar - 17:54:12 10° WSW 17:59:25 55° S 18:06:56 10° ESE daylight
02 Mar - 19:57:18 10° W 20:03:21 39° SSW 20:12:05 10° SE visible
02 Mar - 22:02:15 10° WSW 22:07:33 18° SSW 22:14:05 10° S visible
03 Mar - 15:19:44 10° SW 15:23:50 33° SSE 15:28:45 10° E daylight
03 Mar - 17:22:09 10° WSW 17:27:04 54° S 17:33:58 10° ESE daylight
03 Mar - 19:25:10 10° W 19:30:52 40° SSW 19:39:04 10° SE visible
03 Mar - 21:29:45 10° WSW 21:34:57 19° SSW 21:41:30 10° S visible
04 Mar - 14:47:46 10° SW 14:51:39 29° SSE 14:56:03 10° E daylight
04 Mar - 16:50:05 10° WSW 16:54:47 52° S 17:01:05 10° ESE daylight
04 Mar - 18:53:03 10° W 18:58:25 41° SSW 19:06:05 10° SE visible
04 Mar - 20:57:20 10° WSW 21:02:24 20° SSW 21:08:52 10° SSE visible
05 Mar - 14:15:47 10° SSW 14:19:28 25° SSE 14:23:27 10° E daylight
05 Mar - 16:18:01 10° WSW 16:22:31 50° S 16:28:18 10° ESE daylight
05 Mar - 18:20:58 10° W 18:26:02 42° SSW 18:33:10 10° SE daylight
05 Mar - 20:25:00 10° WSW 20:29:53 21° SSW 20:36:12 10° SSE visible
06 Mar - 13:43:47 10° SSW 13:47:17 22° SSE 13:50:53 10° ESE daylight
06 Mar - 15:45:56 10° WSW 15:50:17 47° S 15:55:36 10° E daylight
06 Mar - 17:48:53 10° W 17:53:42 42° SSW 18:00:18 10° ESE daylight
06 Mar - 19:52:43 10° WSW 19:57:25 22° SSW 20:03:32 10° SSE visible
